Theta_e
286 287 288 289 289 289 289 289 288 288 289 288 285 285 287 288 283 281 288 291 290 292 296 298 299 302 300 300 302 305 306 309 307 312 315 318 321 322 323 323 324 325 325 326 327 327 328 328 328 329 329 330 330 331 331 331 332 332 333 333 332 332 332 331 330 330 329 327 326 325 322 321 320 319 318 317 316 314 313 312 311 310 309 308 306 305 304
287 287 288 289 288 289 289 289 289 290 289 288 287 287 288 288 287 290 289 290 290 293 293 296 299 302 302 301 303 305 305 307 309 311 315 318 320 321 322 323 324 325 325 326 327 327 327 328 328 328 329 329 329 330 331 332 332 332 333 332 332 331 331 331 330 330 328 326 325 323 321 320 319 319 318 317 316 314 313 312 311 310 308 307 306 305 304
284 287 289 290 290 289 287 289 290 290 290 289 288 287 288 288 288 289 289 289 289 293 296 298 303 304 304 303 303 302 303 304 305 311 314 318 320 321 323 323 324 325 325 326 326 326 327 327 328 328 329 329 329 330 330 331 332 333 333 332 332 331 331 331 330 329 327 325 323 321 321 320 319 318 317 316 315 314 313 312 311 309 307 306 305 304 304
283 288 289 289 290 289 287 286 286 287 288 286 286 284 287 286 285 287 288 286 287 292 295 296 297 298 300 301 301 301 303 304 306 310 312 317 320 321 322 323 324 324 324 324 325 326 327 328 328 328 328 329 329 329 330 330 331 332 332 332 331 331 331 330 329 327 326 323 321 321 320 319 318 317 316 315 314 313 312 311 310 309 307 306 304 303 303
282 287 290 289 288 285 282 281 284 289 289 289 288 289 289 289 289 286 282 284 288 292 296 296 296 296 298 299 300 300 302 304 307 310 314 316 318 320 321 321 322 323 323 324 325 326 327 328 328 329 329 329 328 329 330 331 331 331 331 331 331 330 330 329 328 327 325 322 321 320 319 319 318 317 315 314 313 312 311 311 310 308 307 305 303 303 303
281 286 288 287 282 274 277 285 291 292 289 290 289 289 291 292 291 286 289 290 291 292 294 295 294 297 300 301 304 306 304 304 307 310 313 316 317 318 320 322 322 323 324 325 325 326 327 328 329 330 330 330 330 330 330 330 330 330 330 330 330 329 328 327 327 325 323 322 320 319 319 318 317 316 314 313 313 312 311 310 309 308 306 304 303 303 303
281 283 285 279 274 277 288 293 294 294 294 294 291 292 294 294 293 292 291 292 292 294 295 296 297 301 304 304 305 305 307 310 308 308 310 314 318 319 319 320 322 322 324 325 325 325 326 327 328 329 329 329 329 329 330 329 329 329 330 330 329 328 327 326 325 323 323 322 320 319 318 317 316 315 314 313 312 311 310 309 308 306 305 303 303 303 303
283 282 281 275 277 288 293 293 294 296 296 294 294 290 292 294 297 295 292 293 293 294 295 298 301 302 305 309 308 306 306 308 309 309 309 312 316 321 322 321 324 324 324 325 325 326 327 327 328 329 329 329 329 328 330 329 329 329 329 329 328 327 325 324 323 322 322 321 320 318 316 315 315 314 313 312 311 310 309 308 307 306 305 305 303 303 303
282 282 282 282 289 289 290 289 291 292 289 289 290 285 291 297 298 297 295 294 294 295 295 298 300 302 304 301 303 306 307 310 311 311 309 312 311 318 323 324 326 328 328 327 327 327 327 328 328 328 329 329 329 328 328 328 328 328 328 327 326 325 324 323 322 322 321 320 319 317 316 315 314 313 312 310 310 309 308 307 306 305 305 304 304 304 303
283 282 281 282 281 279 284 291 295 296 296 295 296 294 290 297 297 302 300 299 298 297 296 296 299 303 299 295 298 304 307 308 308 309 310 311 313 316 317 321 325 328 328 328 328 328 327 328 329 329 329 329 328 327 327 327 327 327 327 326 325 324 323 322 322 322 321 320 318 316 314 315 314 313 312 310 309 308 307 306 305 305 305 304 304 304 303
281 281 280 280 278 282 288 291 294 297 297 298 298 289 284 291 299 302 300 301 302 302 301 298 299 296 293 294 298 303 305 306 306 305 308 310 313 316 316 315 320 325 327 328 327 327 328 327 328 329 328 328 327 326 326 327 327 326 327 326 325 324 322 322 322 322 321 320 318 316 314 315 314 312 310 309 308 308 308 307 306 305 304 304 303 303 303
281 281 280 280 283 283 288 295 297 301 300 300 291 281 278 289 301 302 301 301 302 303 305 301 297 294 290 291 296 302 305 306 305 307 307 308 310 313 315 315 319 324 326 326 325 326 326 327 328 328 328 328 326 326 326 327 326 326 326 326 326 324 323 322 321 321 320 319 317 315 313 313 314 312 309 308 307 307 306 306 304 304 303 303 303 303 303
282 282 281 281 283 288 295 297 300 302 302 294 282 278 281 295 302 303 302 301 302 304 305 301 293 296 298 299 301 302 303 308 312 311 309 306 308 311 313 314 313 322 325 326 325 326 327 328 328 328 328 327 325 325 326 326 325 326 327 326 324 323 322 321 320 319 319 317 313 313 313 313 313 310 308 307 307 306 305 305 304 303 302 303 303 302 303
282 281 281 282 284 291 297 300 301 303 295 284 281 286 298 301 302 304 304 302 303 304 305 304 304 306 309 308 302 301 303 311 312 308 309 311 310 309 311 313 316 321 324 325 325 326 327 328 328 328 328 326 325 325 325 325 325 327 326 324 323 322 321 320 320 319 317 315 313 314 314 312 309 307 307 307 306 306 305 304 303 302 301 301 302 302 302
283 283 281 281 281 289 301 301 299 300 287 286 294 302 304 304 304 304 303 303 304 305 304 304 305 306 309 310 307 303 304 309 310 311 311 312 313 312 312 313 316 322 323 324 325 325 326 327 328 328 327 324 324 323 324 325 326 325 324 323 322 321 320 319 318 317 315 313 312 312 311 309 308 306 306 306 305 305 304 303 302 301 300 301 301 300 300
282 281 281 282 288 295 301 300 288 296 300 304 305 304 302 305 305 303 303 304 305 306 306 306 304 306 308 310 311 307 307 311 311 313 315 316 317 318 320 320 318 319 323 324 324 324 325 326 327 327 326 323 322 323 324 326 325 324 323 322 321 319 318 318 317 316 314 312 312 312 310 308 307 305 305 305 305 304 303 302 301 300 299 300 300 299 300
285 283 286 292 297 299 302 303 302 303 306 308 307 306 305 303 304 304 304 305 306 307 307 306 305 306 307 308 311 311 309 309 312 315 316 317 318 319 319 319 320 320 320 321 322 323 324 325 326 326 326 323 320 322 324 324 323 322 322 320 319 318 317 317 316 315 313 312 312 312 310 309 306 305 305 304 303 303 302 302 301 300 299 299 299 299 300
297 298 298 300 301 301 302 306 307 306 306 308 308 306 305 305 305 305 305 306 307 307 308 305 306 307 307 308 310 311 311 311 312 315 317 318 318 319 319 319 320 322 321 320 321 321 322 324 325 324 325 324 320 323 324 323 323 322 321 319 318 317 317 316 315 314 312 311 312 311 310 309 307 306 305 304 303 302 301 301 300 300 299 299 299 299 299
291 286 296 297 298 302 303 305 308 308 308 307 309 307 307 306 307 306 307 306 307 307 307 307 306 307 309 309 310 311 311 310 310 313 314 316 317 317 316 316 317 320 321 319 317 316 316 319 323 324 324 324 323 322 322 324 323 322 320 318 316 316 315 314 314 313 311 311 310 310 309 308 307 306 305 304 303 301 301 300 300 300 299 298 298 298 299
288 289 295 298 302 303 305 305 304 305 306 307 308 308 308 308 308 308 308 308 307 306 307 307 307 308 310 311 311 312 311 311 312 312 312 311 312 313 315 316 318 319 319 319 318 317 316 318 320 321 322 322 323 323 324 324 323 321 319 317 316 316 315 314 313 311 310 301 306 308 307 307 306 305 304 304 303 301 301 301 300 299 299 298 298 299 299
294 298 300 301 303 302 304 306 306 306 306 307 308 309 309 309 309 308 309 309 308 307 306 307 309 310 310 312 313 313 312 311 313 314 314 313 312 312 313 314 317 318 318 318 318 317 316 319 320 320 320 321 323 323 324 323 322 319 316 312 314 314 313 313 311 309 308 307 308 307 307 306 306 306 304 304 303 303 303 303 303 301 300 300 300 301 300
286 288 294 300 292 290 298 302 304 306 308 309 308 308 308 308 308 309 308 308 309 309 307 307 309 309 310 311 312 311 312 311 311 313 314 314 311 311 313 314 316 317 316 317 317 317 318 320 321 320 320 320 322 323 323 321 319 316 313 313 313 311 311 311 309 307 307 307 307 306 306 305 304 304 299 300 301 303 302 299 297 297 297 301 302 301 300
288 294 298 300 300 299 301 303 305 307 308 308 308 307 307 308 309 309 307 307 309 310 310 308 308 309 311 311 311 310 310 310 311 313 313 313 313 312 312 312 313 313 315 315 316 316 318 320 320 320 320 321 322 321 321 318 316 314 313 311 311 310 309 308 305 307 306 306 306 306 306 305 304 302 301 300 297 297 298 296 295 294 294 296 296 296 299
297 300 300 303 302 300 302 304 305 306 307 307 308 309 309 309 309 309 308 308 309 310 310 311 311 311 311 312 311 309 309 309 310 311 313 314 313 310 311 311 311 313 313 313 315 316 319 320 321 320 320 321 321 320 319 317 315 314 313 311 309 308 307 305 303 305 307 306 305 305 305 305 304 302 301 300 299 295 293 293 293 293 293 293 293 294 294
298 301 303 304 304 304 306 306 307 307 308 308 307 308 308 308 309 309 307 308 309 311 311 311 312 312 312 311 311 309 309 310 309 310 309 309 310 311 310 311 312 312 311 312 314 315 316 319 320 319 319 319 320 319 318 316 315 313 312 311 309 307 306 304 304 303 304 305 304 305 304 304 303 302 301 300 299 298 295 292 292 292 292 293 293 292 292
301 302 303 305 305 305 306 306 307 307 307 308 307 308 309 309 309 309 308 308 308 309 311 311 311 312 313 312 312 311 310 310 308 308 313 313 313 312 312 311 311 312 313 314 314 314 315 315 317 318 317 317 318 318 317 316 315 313 312 311 309 307 305 304 304 304 304 304 304 304 305 304 304 303 302 301 301 299 296 295 295 294 292 292 292 292 292
303 303 303 300 301 303 303 303 302 306 306 308 308 308 309 309 308 308 308 309 309 309 309 311 312 312 312 310 309 310 310 309 310 311 311 311 310 311 312 313 314 313 312 314 312 309 308 311 313 316 316 316 316 316 316 315 314 313 312 310 309 300 295 300 306 305 305 305 304 304 304 304 303 301 301 300 300 298 298 296 296 296 295 294 292 292 293
303 303 303 299 297 300 303 305 306 306 307 308 307 308 309 309 309 309 308 308 309 308 309 310 311 311 311 311 311 311 312 312 310 310 310 311 311 312 313 312 312 313 314 313 311 310 312 315 315 315 314 316 316 316 315 314 313 311 310 309 307 304 304 304 305 305 305 305 305 304 304 304 303 301 300 299 298 298 297 297 297 296 294 295 293 291 291
303 304 304 303 302 304 305 305 306 306 305 306 307 307 307 306 307 306 306 305 307 308 309 309 310 310 311 311 311 312 311 311 310 310 310 310 311 313 313 312 313 313 313 312 312 313 315 316 315 313 313 315 316 316 315 314 312 311 309 308 306 305 305 305 305 304 304 305 305 305 299 300 302 301 300 299 298 298 297 296 295 295 296 294 292 291 291
301 303 304 304 303 302 303 303 303 304 305 306 305 303 304 303 304 303 305 306 306 307 306 307 308 308 309 310 310 310 310 309 310 310 311 311 313 314 313 313 314 313 312 311 311 312 314 314 314 312 312 316 316 316 315 314 312 310 309 307 306 305 306 306 305 304 304 304 303 294 298 301 302 301 299 299 297 296 296 296 295 293 295 294 292 290 289
301 302 302 301 302 301 302 301 301 303 304 305 302 302 301 301 301 301 302 302 303 304 303 304 305 306 306 307 308 309 310 310 310 310 310 310 312 312 312 313 312 309 309 308 310 312 313 312 312 311 313 315 316 316 315 313 311 309 308 307 307 299 296 295 298 305 304 302 300 300 300 300 301 299 296 297 296 296 296 295 293 293 293 294 293 291 292
299 299 300 299 300 299 300 300 299 301 302 304 302 301 301 300 300 300 301 301 301 301 302 303 303 305 305 305 306 308 309 310 310 310 309 309 309 308 310 313 313 306 313 313 312 311 312 312 312 312 313 315 315 315 314 312 310 308 307 302 305 303 296 294 299 300 300 299 299 300 299 301 301 300 297 296 296 296 296 295 294 293 294 293 292 292 292
297 296 296 297 298 299 299 300 299 300 301 302 302 302 302 302 301 301 301 301 303 304 305 305 305 307 308 308 307 306 306 306 307 309 309 309 309 308 308 309 311 313 313 314 314 314 313 312 311 311 312 312 313 312 312 311 310 308 307 306 304 301 295 296 297 300 299 299 299 301 300 299 300 299 299 297 297 295 296 295 293 292 293 294 294 293 291
297 296 296 298 298 297 298 299 300 299 300 303 303 303 303 302 301 301 302 302 303 303 303 303 303 305 306 306 307 307 306 305 303 303 304 306 307 308 308 307 308 308 307 309 311 311 312 312 312 312 313 313 313 312 312 311 309 308 307 306 303 301 301 299 298 301 300 298 299 297 298 299 299 300 298 296 298 297 294 293 291 292 294 295 295 294 290
301 300 301 302 302 303 302 301 301 301 301 300 302 303 302 301 301 300 299 301 301 301 302 304 304 304 303 303 303 304 305 304 302 303 303 303 304 304 306 308 308 308 308 308 308 309 311 313 313 313 313 313 312 311 311 310 308 307 306 305 302 302 302 301 301 300 299 299 300 301 300 300 301 296 297 299 298 297 295 294 294 293 294 294 295 293 290
303 303 302 302 304 304 303 302 303 303 302 302 303 303 302 301 301 301 300 299 300 301 302 302 303 303 301 301 301 301 302 302 302 303 303 303 304 303 307 308 308 307 306 306 306 307 309 312 301 300 313 312 311 311 310 309 308 307 305 304 301 301 300 300 301 301 300 301 300 300 300 298 298 298 298 299 299 298 297 296 295 294 295 295 295 294 292
301 302 303 304 304 303 302 302 301 302 301 301 301 300 301 301 300 299 300 301 300 299 300 302 302 301 299 297 298 298 299 301 301 301 301 302 302 305 306 306 306 305 305 305 306 307 308 309 296 295 306 308 308 309 307 297 307 305 304 304 303 302 301 302 302 302 301 301 301 300 296 296 300 300 298 300 300 299 299 298 295 295 295 295 295 294 292
297 300 301 302 303 303 302 303 303 303 301 301 301 300 300 300 299 299 299 299 299 299 299 300 301 299 298 298 299 298 297 298 300 302 304 304 304 303 302 302 300 300 302 304 304 303 302 298 296 302 307 307 306 306 301 293 295 304 304 303 302 301 299 300 298 299 300 302 298 300 300 300 301 301 301 301 301 300 298 298 297 296 297 296 296 294 293
293 295 299 301 301 300 300 302 303 303 302 301 301 300 299 299 298 299 299 298 298 298 299 298 298 299 298 298 297 298 298 296 297 302 303 302 302 302 300 300 301 301 302 303 302 302 302 302 303 306 305 306 307 305 296 291 295 304 303 302 301 299 298 299 298 297 298 300 300 300 301 301 302 301 302 301 302 300 296 298 299 296 297 298 297 295 294
291 292 293 295 299 300 301 300 301 302 302 303 300 299 299 299 300 299 298 298 297 297 298 298 298 297 296 296 295 295 296 296 298 300 301 300 300 299 299 301 301 301 301 297 302 302 300 297 303 306 306 307 306 303 298 294 296 301 303 302 301 300 299 298 297 297 298 299 299 295 300 300 301 302 300 302 302 300 301 300 300 299 299 298 297 295 293
290 291 291 291 293 298 300 300 300 300 301 301 301 300 300 300 299 299 298 298 297 297 298 298 298 297 297 297 296 297 297 298 299 299 299 299 297 295 296 295 299 299 297 298 299 298 296 299 302 303 303 304 304 300 299 293 300 302 302 302 301 300 299 299 298 298 297 297 299 299 300 299 298 300 299 301 301 301 301 301 301 300 301 298 294 293 293
290 290 290 290 290 292 298 301 300 298 299 299 299 299 300 300 300 299 298 298 298 297 297 296 293 296 296 297 297 299 299 300 301 300 300 298 296 293 295 296 300 297 290 293 296 296 298 299 298 298 300 301 300 294 294 297 301 302 302 301 300 299 300 299 298 299 297 297 297 299 299 299 298 299 299 299 299 298 300 299 300 300 299 297 294 293 293
290 290 289 289 289 290 294 299 298 297 297 299 300 300 300 299 299 298 299 298 298 298 298 297 297 296 297 297 297 298 298 298 299 299 299 298 298 298 297 298 298 296 290 294 297 298 295 294 295 296 297 300 297 291 294 302 301 300 300 299 299 299 299 299 299 298 298 297 296 297 299 298 299 299 298 299 299 299 298 299 299 298 297 297 297 295 293
290 290 289 288 289 289 291 295 296 296 296 296 296 297 299 299 298 298 298 297 298 297 297 297 297 297 297 298 298 297 297 298 297 297 297 296 297 297 297 293 294 292 289 294 296 296 293 292 291 292 291 291 291 294 303 303 302 301 300 299 297 299 298 298 298 298 298 298 297 298 298 297 297 298 298 298 297 298 298 298 300 299 297 297 297 296 295
289 289 288 288 288 289 289 290 291 292 294 296 295 294 295 296 297 297 298 298 296 295 294 295 296 296 297 298 298 298 297 298 297 296 295 292 292 295 296 291 292 291 291 290 292 292 291 290 288 290 291 290 292 295 302 302 302 300 299 298 299 299 299 299 298 298 298 299 299 298 296 298 297 297 298 298 295 296 296 297 299 300 298 297 296 294 293
288 289 288 287 287 287 288 289 291 292 292 292 293 293 292 293 294 296 296 295 294 294 294 294 294 294 295 296 297 298 299 299 298 298 297 294 293 293 291 289 290 289 289 290 291 290 287 286 286 287 288 290 295 300 301 301 301 301 301 301 301 300 300 299 299 299 299 298 296 295 295 295 296 298 298 299 298 297 296 294 294 297 298 297 295 295 294
287 288 287 287 287 287 287 288 289 289 289 289 289 290 290 290 291 293 294 293 293 292 292 292 292 293 294 294 293 293 294 297 299 299 298 297 294 293 290 288 288 287 288 290 289 289 287 287 286 286 286 287 291 299 301 301 301 300 299 299 300 302 301 301 300 299 299 299 298 297 295 296 297 297 296 296 296 296 294 294 294 295 295 293 294 293 292
285 286 287 287 287 287 287 288 287 286 286 287 288 289 289 289 289 290 291 292 291 290 290 290 290 290 291 292 292 293 292 294 293 294 296 296 296 295 294 292 290 288 289 290 290 288 286 286 286 286 286 287 292 294 296 297 297 298 299 300 300 301 301 300 299 299 297 297 296 297 295 296 297 298 297 297 296 295 294 293 292 292 294 293 294 294 293
285 286 286 286 287 286 286 285 285 285 286 287 288 288 289 288 288 287 288 289 289 288 287 288 288 288 289 289 290 290 290 291 292 290 292 292 292 292 292 290 289 289 291 292 293 291 288 287 288 288 289 291 297 297 296 296 296 298 298 299 299 300 299 300 299 298 297 296 295 293 294 293 294 296 296 295 295 295 294 294 295 293 293 292 291 291 291
285 285 285 285 285 285 285 285 284 285 286 286 286 287 288 287 285 284 285 286 287 286 286 286 286 286 287 288 289 289 289 289 289 289 290 289 290 290 290 289 288 288 288 289 289 288 287 287 287 288 290 295 295 296 297 298 297 297 297 296 295 296 295 295 294 294 296 293 293 292 293 294 292 292 293 292 292 292 292 293 293 292 291 290 289 289 289
284 284 284 285 285 286 286 286 285 286 286 286 287 287 287 287 285 285 284 284 285 285 284 284 285 285 286 287 287 288 288 288 287 287 288 288 288 287 287 288 288 287 287 287 287 287 287 287 287 287 289 290 291 291 291 293 294 292 291 293 293 292 291 291 292 294 295 294 295 295 294 295 296 295 295 294 293 292 292 292 290 291 290 291 290 289 290
285 285 285 285 285 285 286 286 286 286 286 286 286 286 286 286 286 285 284 284 284 283 283 283 282 284 285 285 286 286 287 286 286 286 286 286 286 286 286 286 286 286 287 286 286 286 285 285 285 285 286 287 288 288 286 287 288 288 288 287 287 288 286 286 287 289 291 291 292 292 292 291 291 292 291 291 291 292 292 291 290 290 290 291 292 291 292
Wind_Speed
7 7 9 10 9 7 9 10 8 8 11 11 9 9 14 5 6 7 4 0 4 6 5 7 7 3 5 5 10 11 8 9 4 6 11 14 14 15 17 18 19 19 19 18 18 17 16 16 16 16 15 14 12 12 13 13 13 14 14 14 13 13 13 14 14 14 12 12 12 13 13 13 13 13 13 12 12 11 11 11 10 11 11 10 10 9 8
7 8 9 8 9 7 7 8 9 10 10 10 12 15 12 9 10 4 7 6 6 6 11 10 6 3 5 6 7 10 12 10 12 4 11 15 17 18 17 17 18 19 21 20 20 18 16 17 17 16 15 15 15 15 14 13 13 12 13 14 14 14 14 14 13 13 13 12 12 13 14 14 14 13 12 12 12 11 11 11 11 10 9 9 10 10 10
9 9 7 5 4 4 5 8 7 6 6 8 10 9 10 11 10 5 7 6 9 6 8 8 4 0 4 7 10 10 10 11 11 7 6 10 15 18 18 17 17 17 17 17 17 17 17 18 18 17 16 15 14 14 13 14 14 13 14 14 15 15 15 13 13 14 13 13 13 14 14 13 13 13 13 11 11 11 11 11 11 10 10 10 9 9 10
6 4 5 9 8 4 4 6 5 3 4 4 4 6 7 8 8 4 2 5 6 7 7 8 4 4 4 3 4 6 8 9 10 7 3 5 9 9 11 12 13 13 13 14 15 17 18 18 18 16 14 14 14 14 14 13 12 12 13 14 14 14 14 14 14 15 14 14 13 14 14 14 14 13 13 12 12 11 11 11 10 9 10 10 9 8 8
5 8 8 10 10 7 7 7 5 1 4 5 7 7 7 8 5 5 6 8 6 9 6 5 4 4 3 4 4 4 9 6 7 7 1 4 1 8 9 6 6 8 12 15 18 18 17 16 16 16 16 15 16 15 15 13 12 13 14 14 14 13 13 14 15 15 14 16 16 15 14 14 13 13 13 12 12 12 12 11 10 11 11 10 9 8 9
2 4 6 7 3 2 4 1 1 2 5 9 7 7 8 10 3 6 7 8 7 5 5 6 4 8 2 2 2 1 3 3 4 6 4 4 4 3 2 6 5 6 9 11 13 15 17 18 18 16 16 17 16 14 14 13 14 13 14 13 14 14 13 14 15 15 15 16 16 16 16 15 14 13 13 13 12 11 10 10 11 10 9 11 9 9 10
3 3 2 1 0 5 5 9 7 6 7 2 5 10 10 11 8 6 9 8 6 8 6 7 7 5 5 4 2 0 2 1 1 1 8 5 12 10 7 4 7 8 10 11 11 11 11 12 12 12 12 10 10 11 12 13 13 14 14 14 13 13 14 13 12 14 16 17 17 16 16 15 14 14 13 12 12 11 11 12 12 11 11 11 10 9 9
0 1 2 2 5 8 13 14 10 5 2 2 4 7 3 5 9 8 8 10 10 8 6 5 4 7 2 2 2 2 3 3 4 4 11 15 9 15 14 14 13 13 13 13 14 15 13 11 10 12 14 13 14 14 13 14 13 14 13 14 14 13 14 14 15 14 14 15 16 15 13 14 16 15 14 14 13 10 9 8 7 7 5 8 10 10 10
2 1 2 5 3 7 7 8 4 2 2 2 3 1 7 8 6 8 7 9 10 11 8 6 4 3 3 2 8 5 1 8 12 13 15 14 14 12 17 19 21 21 19 16 15 14 13 13 14 14 12 13 14 13 14 13 14 13 14 14 14 15 15 15 15 15 16 16 15 15 17 18 16 14 13 12 10 10 11 10 10 10 11 10 10 11 11
3 2 2 2 1 2 6 9 5 2 3 4 4 4 5 4 2 3 5 5 5 5 8 7 4 4 2 2 3 7 5 14 16 17 17 13 13 13 12 11 11 14 16 17 18 18 17 16 17 14 14 15 15 15 14 14 14 14 14 15 14 15 14 15 16 16 16 16 16 15 15 17 16 13 13 11 12 11 13 12 12 11 10 9 9 10 12
2 0 2 2 2 6 7 8 7 3 4 4 4 2 4 3 2 4 3 6 7 6 4 6 2 4 4 7 7 8 13 14 13 10 16 14 13 16 12 10 12 12 14 17 17 15 16 17 15 15 16 17 16 16 15 15 15 15 15 14 14 15 14 13 15 16 16 15 15 15 15 13 14 15 13 13 11 10 10 10 10 8 8 9 9 8 10
4 4 2 3 3 5 3 3 4 1 2 1 2 3 4 2 6 5 4 4 7 8 7 1 5 9 11 9 8 10 12 12 18 8 11 13 12 11 14 12 13 16 14 11 12 15 16 17 16 16 15 15 16 16 15 15 15 15 16 15 13 12 13 13 11 12 14 15 14 12 13 11 9 12 13 12 12 11 9 8 9 8 9 9 11 9 8
3 4 3 2 4 3 6 9 12 3 1 1 3 8 3 4 7 7 5 6 4 4 6 2 3 8 7 6 10 10 8 7 7 8 5 7 11 12 12 12 10 10 11 15 17 18 17 16 15 16 16 16 15 15 15 15 16 16 14 11 12 12 12 13 14 11 9 8 9 10 12 13 13 10 10 12 11 11 11 8 8 8 9 8 9 8 8
3 2 2 5 3 1 5 6 6 4 3 2 6 3 2 6 8 7 6 8 7 3 4 3 3 7 11 12 11 8 9 9 9 10 7 4 3 5 7 12 10 10 12 13 14 14 13 17 17 16 16 16 16 15 15 16 15 11 11 12 12 12 13 12 12 12 11 9 12 13 11 9 9 8 5 9 12 11 9 9 10 10 8 8 8 8 7
1 1 3 5 5 2 1 9 6 1 1 6 4 7 9 4 6 7 7 6 8 5 6 3 4 6 9 10 9 10 10 13 9 3 3 4 3 3 1 3 7 13 11 12 13 15 13 15 15 15 17 17 15 14 16 15 11 12 12 12 12 12 12 12 11 10 9 10 11 11 11 10 10 10 9 9 9 10 11 10 10 10 9 8 8 8 7
0 1 1 2 4 9 8 4 4 4 7 4 7 6 9 10 7 5 6 7 5 7 9 9 2 3 9 9 10 7 10 4 2 4 3 4 5 6 7 6 4 1 8 12 11 10 12 14 14 14 17 16 15 15 15 11 11 12 12 12 13 13 12 11 11 10 9 10 11 11 10 10 11 11 10 10 9 9 10 10 9 9 7 8 8 9 9
1 3 4 7 4 8 9 7 6 6 5 1 3 5 7 9 8 3 6 7 7 7 9 6 4 6 7 6 6 10 12 5 5 7 7 6 7 8 8 7 8 6 4 6 9 10 10 13 12 14 14 17 17 17 13 13 13 14 13 13 13 13 13 12 11 9 10 10 12 11 11 12 12 10 10 10 9 8 8 8 8 9 8 8 8 8 7
4 5 9 7 5 9 10 6 6 6 6 5 2 5 8 8 8 6 7 8 6 6 8 2 5 5 5 8 10 10 10 14 4 6 8 7 8 7 7 8 9 10 9 6 5 10 11 12 13 14 15 17 20 17 14 14 14 14 13 13 12 13 11 12 12 12 11 10 9 10 11 10 11 11 13 12 10 9 9 8 8 9 9 8 8 8 9
3 5 5 9 10 7 6 3 6 3 3 4 3 6 8 11 11 9 7 6 5 5 7 1 4 4 5 8 8 9 9 9 12 13 5 5 8 10 10 8 10 12 12 11 8 8 6 2 5 10 14 12 12 12 14 13 14 15 14 12 11 11 11 10 9 11 14 11 9 9 9 8 7 7 8 8 8 9 8 9 9 8 8 8 8 9 9
4 6 6 6 6 7 6 4 4 4 7 8 8 7 8 9 12 9 9 8 8 3 4 1 4 6 6 7 7 6 6 4 5 7 9 13 6 5 6 7 10 11 11 10 9 11 7 4 8 7 3 7 8 8 9 12 13 14 14 14 13 12 12 11 9 10 10 13 13 10 9 10 9 8 7 8 10 11 12 11 10 9 10 10 11 11 10
8 8 9 7 6 6 3 3 3 3 5 5 8 11 12 12 11 9 12 12 10 5 4 3 4 8 7 6 6 6 5 4 3 7 8 8 8 7 6 5 8 12 11 11 13 12 10 7 3 2 3 7 9 11 11 11 13 13 12 12 11 12 11 10 10 9 9 10 10 10 10 9 8 9 12 12 12 10 8 8 11 13 12 10 10 9 8
6 4 7 3 5 6 9 9 8 6 6 5 6 8 10 12 10 10 12 15 16 7 2 3 3 6 6 5 6 8 5 7 0 6 9 6 3 4 5 3 6 11 10 13 14 14 11 11 12 7 5 3 5 8 9 10 11 13 13 12 11 10 9 10 9 9 8 8 8 8 9 9 9 6 3 5 5 7 8 10 12 9 9 12 13 11 10
6 9 7 2 3 6 8 9 5 4 5 5 6 7 11 12 11 7 8 13 7 4 5 3 2 1 8 9 7 1 7 2 2 5 7 7 5 2 2 3 3 3 5 5 7 8 6 7 10 11 11 10 9 8 9 10 12 12 12 10 10 9 9 9 10 10 9 9 8 8 8 8 8 8 6 3 5 7 6 8 9 10 12 9 10 12 11
7 9 6 2 2 6 8 7 8 3 3 2 5 10 12 12 12 12 9 6 3 4 4 4 5 4 5 3 2 3 1 2 4 6 6 8 8 4 2 3 3 6 5 3 4 5 6 7 10 11 11 10 11 11 11 11 12 13 12 12 10 8 8 8 9 9 9 9 9 9 8 8 8 8 8 7 4 2 8 11 9 10 12 12 12 12 12
6 2 1 1 5 7 7 7 7 7 2 1 1 5 11 13 16 12 9 8 3 3 4 3 1 0 1 2 3 4 3 2 4 5 5 6 10 10 5 6 5 5 3 2 3 4 2 5 8 7 10 7 10 11 11 11 11 13 14 12 11 9 9 9 9 9 9 9 9 9 9 9 8 8 8 8 9 6 0 4 8 11 11 11 12 12 11
4 4 2 2 3 5 6 6 4 2 6 4 5 6 9 11 14 17 13 5 5 6 6 6 6 4 2 1 1 1 2 4 4 3 6 6 5 5 8 6 4 4 2 4 6 4 6 8 5 10 7 8 10 11 11 11 11 11 10 11 15 13 10 9 9 8 8 8 9 9 9 10 10 11 10 10 9 7 7 5 1 3 6 12 14 13 13
2 2 0 2 4 7 3 2 6 4 5 5 4 8 10 10 11 11 6 5 4 6 6 5 6 6 5 3 2 1 4 4 7 8 7 5 4 2 1 5 9 8 4 6 6 6 6 7 5 1 8 8 9 11 12 12 11 10 9 9 8 10 19 18 13 12 10 10 10 9 9 9 9 8 7 7 7 8 10 11 10 10 10 8 10 13 11
3 3 0 0 3 5 6 7 6 4 5 6 8 9 10 10 9 10 6 9 10 9 8 7 7 6 6 3 3 5 6 8 8 6 6 5 3 3 3 3 3 1 7 9 4 4 7 8 6 4 3 7 9 10 11 11 11 11 10 9 9 9 8 8 7 8 9 9 10 10 10 9 9 9 8 9 9 9 8 8 9 9 6 7 6 6 10
3 1 0 1 4 6 4 3 6 7 6 8 10 9 6 7 7 2 3 3 2 5 9 7 6 6 6 4 4 6 6 7 7 7 5 4 4 5 4 4 5 4 6 7 4 1 6 7 9 1 1 6 8 9 10 11 11 11 11 10 9 9 9 8 7 7 7 8 8 9 8 8 9 9 10 9 9 8 7 7 7 7 7 5 4 3 2
5 4 4 5 6 5 5 4 5 7 9 10 12 8 4 4 8 5 6 6 6 7 3 4 6 7 5 6 5 5 6 5 5 4 5 4 4 4 5 6 6 7 6 4 1 4 9 8 5 1 2 7 10 10 11 11 11 11 11 11 11 10 9 9 8 8 8 8 8 9 9 8 8 8 8 8 8 8 8 8 8 7 8 7 7 7 8
5 6 8 9 12 11 8 3 1 1 3 8 6 6 9 6 7 7 6 6 7 5 5 5 5 5 5 4 4 4 4 4 5 5 5 4 4 4 4 4 7 6 4 3 2 3 6 9 10 5 1 0 5 9 10 9 8 8 7 7 7 9 12 12 9 8 7 7 7 8 7 7 7 7 8 8 8 8 8 8 8 8 8 8 9 9 8
7 8 11 10 8 10 13 9 4 4 3 4 6 7 5 5 6 7 6 6 5 4 6 8 7 6 4 3 3 5 6 6 5 6 5 5 4 3 3 4 6 6 6 6 5 5 5 5 8 7 7 7 8 9 9 10 10 9 8 7 8 7 9 12 8 7 8 7 8 8 7 8 7 7 8 8 8 9 8 8 9 9 9 9 10 9 7
7 8 10 10 11 11 12 12 7 4 3 5 4 2 3 2 1 4 5 5 7 8 8 6 5 6 7 7 7 6 5 4 5 6 6 7 5 4 4 4 4 5 5 6 7 7 7 7 6 4 4 5 5 5 5 7 7 8 7 7 7 7 8 8 8 8 7 8 8 8 8 8 7 8 9 9 8 8 8 7 7 8 9 8 8 7 7
3 3 1 1 1 3 5 9 10 7 4 3 4 4 3 4 4 5 6 6 7 7 6 5 4 6 8 9 8 7 6 6 7 6 4 4 5 5 4 5 5 5 3 3 5 5 5 6 5 5 5 5 6 6 6 7 7 7 7 7 8 8 8 7 9 8 8 8 8 8 7 8 8 8 7 8 8 8 8 9 9 8 8 7 6 6 7
1 2 2 2 3 3 3 5 7 10 9 3 2 2 2 3 5 6 7 7 5 2 2 4 6 6 8 8 9 8 8 6 4 4 3 2 1 2 2 5 5 6 6 5 3 4 4 5 6 6 6 6 6 6 7 7 7 7 7 7 7 8 8 8 8 8 8 7 7 7 6 7 7 6 6 7 7 8 7 8 7 7 8 8 6 5 6
12 10 6 6 7 4 4 4 3 7 10 8 6 1 3 4 6 7 8 5 3 4 5 4 5 7 8 8 8 8 7 6 5 6 5 4 4 3 2 6 5 5 5 4 3 1 4 5 7 9 6 6 6 6 6 7 7 7 8 8 7 7 7 7 6 5 5 7 7 8 8 8 7 7 7 7 7 7 7 7 8 8 9 8 6 7 8
15 12 11 9 6 5 5 5 4 6 9 5 6 1 4 4 5 4 5 7 7 5 4 5 7 7 5 4 4 4 4 5 5 4 3 3 3 6 5 4 5 4 4 3 0 0 2 5 8 10 7 5 5 4 6 9 7 7 7 7 7 7 7 6 6 6 6 5 6 6 6 6 5 6 6 7 7 7 8 8 7 7 7 7 6 7 7
15 15 13 12 10 7 7 6 4 6 5 2 1 1 2 3 4 5 5 5 5 5 5 6 5 4 4 4 5 5 5 4 5 5 5 5 5 7 6 6 5 3 3 2 1 2 2 5 6 4 3 5 5 5 7 10 10 8 6 7 7 7 7 6 6 5 6 6 6 7 6 6 6 6 7 7 8 8 8 8 8 8 8 8 8 8 8
19 17 16 15 12 8 4 7 9 7 7 6 4 1 2 4 4 5 6 5 3 4 6 5 4 6 6 5 4 4 4 4 4 6 7 6 7 9 6 5 3 3 3 2 2 4 5 5 3 6 5 4 4 4 7 11 11 6 6 6 7 6 6 6 6 6 6 5 5 6 6 6 6 7 7 8 7 7 8 9 9 8 9 9 8 8 8
15 15 16 15 12 12 10 8 7 7 4 2 4 2 0 4 5 6 5 6 4 5 6 5 6 6 4 3 3 4 4 2 4 6 5 5 6 6 5 6 7 6 4 5 3 2 2 4 4 1 4 4 4 5 6 10 9 7 7 6 6 6 6 6 5 6 5 5 6 5 5 6 7 7 7 7 7 7 7 8 9 8 8 8 8 7 7
14 15 15 14 14 12 12 10 9 9 8 5 2 3 4 4 5 6 6 5 4 5 6 5 6 5 4 4 4 5 5 5 4 4 4 6 7 6 7 5 4 4 4 4 3 3 2 2 2 3 1 3 4 5 6 8 8 6 6 7 6 6 6 6 6 6 6 6 7 7 8 7 6 6 6 7 7 7 8 8 8 8 7 7 6 6 7
15 15 15 16 14 14 13 10 10 9 8 7 2 4 4 4 6 6 4 4 5 5 5 4 5 4 4 5 6 6 6 6 8 7 6 6 5 5 6 2 4 5 6 4 5 5 4 3 2 3 3 3 4 7 8 5 3 4 5 5 6 6 6 7 6 6 6 6 6 6 5 6 6 6 6 6 6 6 7 7 6 6 6 6 6 6 7
15 15 15 14 14 15 14 12 10 9 9 10 6 3 5 5 5 5 4 4 4 4 5 5 6 7 6 6 6 6 5 5 7 7 7 4 4 4 4 0 2 4 6 4 3 5 5 4 2 2 3 4 5 10 10 6 5 5 5 4 4 6 6 6 6 6 6 6 6 6 6 6 6 7 7 7 6 6 6 6 6 6 6 6 6 6 7
13 12 12 13 13 13 13 12 12 11 10 9 8 9 9 6 4 4 5 4 5 6 7 7 7 6 6 6 7 7 6 5 5 4 6 4 4 4 3 2 1 3 6 5 5 5 5 3 1 4 7 8 9 9 7 6 6 5 5 6 6 5 5 6 6 6 7 7 7 7 7 7 7 7 7 7 6 6 6 6 6 5 5 5 5 6 7
13 11 11 11 11 12 13 13 14 13 9 5 9 13 12 10 8 8 7 8 11 12 11 11 10 9 8 7 6 4 4 3 2 3 5 5 6 4 5 4 5 5 6 6 6 6 5 5 6 6 3 8 9 8 5 6 6 6 6 6 6 6 6 6 7 7 7 7 7 7 7 7 7 7 7 7 7 7 7 7 7 7 6 6 6 6 6
12 11 11 11 12 12 10 11 11 10 10 11 12 14 14 12 11 10 11 11 11 11 10 11 11 11 10 8 7 7 6 7 8 8 7 5 5 2 5 7 5 6 8 8 7 7 6 7 8 8 8 7 4 4 4 5 5 6 6 6 6 6 6 6 6 6 6 6 6 6 6 6 7 7 6 6 7 7 7 7 6 6 6 7 7 8 8
10 11 12 11 10 11 12 11 12 15 16 16 15 12 12 13 11 8 9 10 10 11 12 12 11 11 11 11 10 8 7 6 7 8 7 6 6 6 7 9 9 11 9 8 7 7 6 6 6 6 5 5 6 3 4 4 3 5 5 5 5 5 4 4 5 5 6 6 7 7 6 7 6 5 5 5 5 6 6 6 6 6 6 6 6 6 7
10 11 11 11 11 10 10 12 15 15 14 12 9 9 11 11 10 9 8 9 10 11 12 11 10 11 12 12 11 10 8 6 7 9 10 8 8 8 8 7 7 8 9 8 9 8 11 10 9 10 9 7 3 3 2 2 2 3 3 3 3 4 3 3 3 4 4 3 5 4 5 5 4 5 5 6 6 6 5 6 6 5 6 6 7 7 6
9 9 9 8 11 13 12 13 13 12 11 10 12 10 11 11 9 9 11 10 10 11 11 11 11 11 11 11 11 10 10 10 8 6 6 7 8 8 8 9 13 11 9 9 9 8 12 13 13 14 12 9 6 5 2 2 5 5 4 3 3 4 5 5 5 4 5 5 5 5 4 4 4 4 4 3 4 3 4 4 5 5 6 5 6 5 7
8 8 9 10 10 11 11 11 11 8 8 9 10 10 10 10 10 11 10 9 8 8 9 10 9 9 9 9 9 10 10 10 9 7 8 9 9 9 9 9 9 12 12 9 9 9 11 15 15 15 11 8 8 8 8 9 7 4 2 1 1 1 1 0 5 7 6 5 5 4 4 5 5 5 5 4 5 4 4 5 5 6 7 5 5 5 6
8 9 8 8 7 7 9 8 7 8 8 9 8 9 9 10 10 9 10 10 8 9 9 9 9 10 10 10 9 10 10 9 9 10 9 9 9 10 11 9 11 11 11 11 10 9 9 10 10 10 10 10 10 10 10 9 9 10 9 9 9 9 9 10 9 8 6 4 1 0 1 1 3 3 3 4 4 5 5 6 7 6 5 6 6 5 6
7 6 7 6 7 7 6 7 8 8 8 8 8 9 9 9 8 9 10 12 11 9 8 8 10 10 9 9 9 10 10 10 9 9 9 10 10 8 10 12 11 11 12 10 10 10 9 9 10 12 12 10 9 10 10 13 12 10 10 10 10 10 10 10 9 9 9 9 8 8 8 8 7 6 4 2 3 4 5 4 5 5 6 6 6 4 5
Wind_Direction
258 256 272 282 285 260 265 276 278 271 278 258 221 221 233 197 218 228 256 277 315 284 268 286 278 266 301 321 331 315 297 352 273 197 174 167 176 178 174 176 176 172 173 176 176 176 176 173 173 175 176 178 177 177 175 175 174 176 171 170 171 173 176 179 177 172 168 169 168 164 162 162 163 166 168 167 162 161 163 165 167 170 170 163 159 163 163
283 271 268 272 271 282 272 257 255 250 250 247 231 243 246 220 237 203 256 293 290 274 295 277 257 212 279 314 349 333 351 10 357 242 179 175 171 176 180 180 179 178 177 175 175 174 172 173 175 177 177 177 176 173 175 176 177 174 167 174 172 175 181 179 171 168 167 167 168 162 163 165 166 166 167 168 163 164 167 167 168 167 163 163 163 163 164
284 273 272 252 249 242 277 263 241 254 273 281 254 234 243 235 244 229 245 261 280 274 252 256 254 147 260 332 358 329 327 351 11 333 206 178 177 177 180 180 182 182 178 175 171 170 172 175 178 179 179 176 173 174 175 176 177 174 172 173 175 178 181 176 168 166 167 168 164 165 164 164 164 167 169 167 164 164 165 167 168 166 162 162 166 165 164
262 255 307 317 309 293 247 270 295 299 331 330 279 236 229 224 236 210 217 262 254 275 278 263 295 321 355 337 280 316 327 342 356 1 322 193 171 180 179 181 179 174 173 170 172 175 177 179 178 175 173 172 171 177 175 176 174 168 172 173 176 178 177 172 169 170 168 162 165 164 163 166 166 170 168 167 164 163 164 168 169 164 167 168 162 160 158
278 299 327 311 322 349 344 285 230 268 271 235 261 269 261 246 219 218 220 233 210 229 236 223 269 288 288 319 305 347 327 340 357 341 42 55 177 163 155 153 177 183 178 179 179 181 179 176 176 179 173 169 176 176 174 171 162 170 174 174 173 175 176 174 172 173 168 165 165 167 168 165 169 169 168 167 165 164 170 171 165 170 173 159 159 159 159
252 249 280 302 357 331 241 226 159 329 285 291 294 286 289 283 193 207 202 218 230 239 242 221 254 255 239 221 256 57 249 309 346 354 317 119 101 73 116 162 177 198 195 191 186 180 177 179 180 174 173 177 177 171 166 159 164 171 169 173 172 173 175 176 174 173 169 168 169 169 169 168 166 169 170 170 169 167 165 166 170 173 167 160 156 160 164
260 244 268 47 262 239 257 289 275 260 266 233 263 266 271 281 293 291 295 283 258 247 226 223 242 209 200 190 50 122 200 240 71 357 322 281 152 152 146 166 168 196 209 194 179 181 185 182 175 168 173 169 158 160 160 162 166 167 172 170 171 171 172 175 174 175 173 171 171 172 168 163 166 170 167 165 166 167 169 171 171 171 170 162 163 160 158
46 57 42 19 260 264 296 298 299 302 91 196 343 347 317 318 325 311 294 283 271 255 271 256 198 200 234 53 142 256 282 216 224 198 219 243 248 162 166 180 181 185 195 191 185 188 183 170 170 173 174 166 163 168 166 165 166 168 169 170 170 172 174 174 174 174 174 175 173 166 161 164 167 169 170 167 166 163 163 165 161 152 155 150 153 158 157
236 190 182 223 302 314 305 334 329 43 335 331 98 248 284 286 302 324 293 286 284 288 268 249 227 127 66 31 323 284 23 318 283 242 229 207 223 212 190 185 182 183 183 182 187 182 177 177 174 178 171 167 167 163 167 168 165 167 169 174 174 175 179 176 174 175 176 176 175 170 167 167 172 169 164 162 160 159 160 163 163 170 170 166 161 157 159
133 160 268 326 359 272 281 230 248 170 153 149 177 132 277 282 255 287 302 302 315 309 296 281 251 94 129 285 289 291 288 250 240 237 246 224 217 224 220 201 190 182 180 183 183 180 180 181 180 174 167 167 166 167 170 167 167 171 175 179 176 175 181 179 174 175 180 179 176 173 166 171 165 163 164 161 161 164 164 167 174 176 167 157 159 161 160
71 85 194 226 231 245 217 262 268 189 173 152 197 87 288 269 300 312 307 334 331 329 334 286 268 114 218 235 229 235 237 257 263 234 227 226 208 215 215 197 189 192 189 186 182 180 176 177 179 172 170 167 166 170 170 171 172 174 182 181 178 178 178 181 178 178 180 181 179 172 163 162 165 166 162 161 160 165 171 171 165 152 155 155 156 161 167
202 155 165 251 203 249 268 279 318 25 136 353 80 302 276 253 315 315 324 325 324 318 315 267 235 214 223 224 236 231 243 243 257 220 203 224 220 202 209 210 193 189 191 177 173 175 177 181 172 168 167 168 171 171 174 171 173 180 184 182 176 171 168 174 187 187 183 179 173 165 161 154 160 163 158 154 162 164 158 157 152 159 161 160 159 163 159
212 180 263 312 301 307 356 348 326 317 326 77 186 221 236 298 313 313 304 288 277 294 309 331 182 244 251 237 216 226 219 247 281 277 251 193 186 205 212 215 199 181 177 177 180 181 181 173 168 169 168 169 172 173 171 174 181 183 176 165 163 167 171 175 179 182 178 164 125 125 151 163 167 164 161 157 149 153 156 150 151 159 162 157 153 156 165
274 230 219 248 245 270 295 291 326 338 4 282 224 229 257 302 304 303 296 288 287 276 257 260 248 272 288 293 298 263 230 225 230 243 242 231 215 224 211 203 180 180 177 185 184 178 171 167 168 168 169 171 173 171 173 182 183 163 157 161 163 165 169 175 175 173 166 137 144 158 158 141 134 140 138 141 152 152 146 154 161 159 155 154 154 156 158
290 52 304 321 306 240 54 311 312 75 113 244 267 313 312 303 290 293 298 281 286 292 287 235 239 294 316 305 274 258 246 226 238 285 337 322 319 320 314 266 213 171 170 175 174 173 168 168 167 168 168 169 170 171 179 180 161 155 157 159 160 164 166 167 171 167 152 137 139 139 144 147 141 141 142 145 148 146 150 155 156 157 161 159 155 153 153
208 302 262 226 214 272 289 261 232 225 201 235 282 297 306 296 297 292 301 289 281 292 286 291 333 355 341 352 5 289 239 245 75 90 80 89 88 93 77 70 24 285 175 166 161 160 162 165 167 167 166 166 169 172 178 160 152 150 155 158 157 157 162 166 164 155 140 139 137 138 139 140 142 145 151 152 151 156 158 158 158 160 166 165 160 163 167
147 216 230 245 267 272 272 245 274 282 288 279 281 286 283 293 294 297 287 287 304 299 294 290 26 15 1 326 22 37 331 306 121 114 123 121 113 106 103 94 101 87 104 139 138 144 157 162 166 168 169 165 166 172 165 151 151 154 156 158 159 162 163 161 157 147 134 139 147 150 152 150 148 152 150 151 150 156 156 159 162 164 163 159 160 163 168
267 270 242 256 255 255 264 248 250 256 285 298 311 309 308 293 291 287 282 295 301 307 293 292 25 20 356 17 17 21 16 336 321 120 122 115 106 103 99 103 101 107 97 87 127 152 163 170 170 173 175 170 169 171 155 151 151 151 151 154 159 160 161 160 157 142 136 145 146 150 152 158 159 161 160 161 160 160 161 166 168 164 161 159 168 180 188
341 294 249 231 245 266 273 268 276 288 294 292 306 303 298 293 296 304 300 294 296 305 283 308 84 38 13 37 29 40 26 15 343 345 10 111 129 127 121 126 116 109 111 108 82 24 350 313 198 184 175 175 155 134 145 155 152 149 151 153 152 149 147 146 143 143 145 150 145 147 149 145 147 150 155 156 152 158 163 164 165 166 164 167 176 184 191
248 255 275 272 273 268 263 218 266 299 320 328 312 274 254 272 288 292 304 326 333 338 287 330 83 65 43 48 47 39 48 5 7 29 22 352 357 78 99 105 105 103 104 106 110 123 117 23 344 347 30 100 117 141 158 153 146 146 151 155 155 154 151 149 148 146 148 148 148 152 155 154 152 150 157 162 164 171 174 172 165 171 176 185 188 188 190
263 280 281 284 300 294 241 212 209 208 254 285 310 317 311 298 283 318 332 341 325 304 300 320 67 74 52 43 55 51 33 314 87 73 47 32 354 345 44 82 114 123 125 127 136 137 138 125 135 284 173 156 160 169 162 145 143 143 141 141 144 148 149 148 144 142 143 151 155 154 154 156 160 167 169 172 178 182 185 172 179 176 183 188 187 190 184
303 276 297 356 347 311 306 312 317 333 329 327 318 306 294 286 312 345 352 326 298 257 22 355 342 92 99 78 45 29 341 280 83 91 92 84 58 357 352 29 117 136 141 146 155 164 163 151 154 139 120 171 167 161 143 135 136 136 138 138 135 140 140 140 136 133 136 144 144 146 150 151 147 132 97 149 165 172 181 192 197 201 183 185 186 180 189
271 280 279 245 235 272 268 277 304 350 328 304 304 298 293 305 321 314 289 274 273 37 33 31 296 58 80 63 64 147 229 232 38 53 70 86 82 27 345 54 56 103 132 144 147 149 148 149 153 152 163 176 158 136 127 128 128 129 130 129 134 138 141 146 150 149 150 148 147 146 149 149 149 148 135 111 143 165 172 176 185 184 185 189 180 190 185
269 279 292 308 234 261 285 296 299 286 202 258 328 319 315 307 285 263 233 241 312 42 29 21 358 10 55 96 149 215 247 344 37 64 77 81 76 41 359 79 83 99 101 122 139 146 155 159 159 160 157 149 140 138 136 137 137 136 138 138 141 144 143 136 141 148 149 147 147 147 150 150 153 154 155 151 134 124 149 164 180 178 177 177 183 190 193
254 271 57 225 241 266 276 281 276 276 215 134 3 315 294 292 297 300 327 344 18 59 57 58 70 274 136 214 197 187 186 106 63 67 81 92 97 95 42 15 42 82 98 96 44 29 52 137 136 118 113 122 134 134 134 135 139 143 145 141 137 138 140 142 146 145 145 148 150 149 150 152 157 159 162 166 168 174 9 159 165 170 176 187 193 194 192
245 303 312 248 276 284 296 308 291 303 350 21 346 294 300 310 310 313 310 337 8 35 55 56 53 32 36 24 43 140 94 91 91 87 84 79 74 103 136 144 54 29 58 79 64 45 69 20 80 131 144 153 138 130 130 133 138 139 144 148 148 146 141 145 143 145 148 152 155 161 166 171 172 175 178 177 174 158 141 120 52 309 257 214 201 197 200
261 228 140 24 320 299 302 287 282 306 327 324 304 287 293 301 312 318 316 11 340 38 42 52 84 84 62 54 76 46 109 102 73 61 55 56 71 85 112 136 132 140 125 78 64 87 93 90 357 182 144 150 135 134 137 140 137 135 134 139 140 153 156 156 162 165 167 167 169 168 169 173 170 164 155 149 148 160 171 179 184 190 201 226 229 204 197
268 255 122 115 265 286 290 285 277 323 328 328 315 307 299 303 307 304 350 3 4 10 27 25 40 53 65 23 42 40 45 58 72 78 76 70 68 63 64 75 92 141 108 104 121 157 132 104 71 344 131 134 132 133 134 134 131 132 136 139 140 141 160 166 158 161 163 165 165 169 169 164 156 154 148 153 168 183 186 186 186 190 200 209 202 217 215
285 83 289 236 253 269 290 336 345 332 349 338 315 298 273 263 265 307 9 48 29 23 25 11 30 35 53 42 49 58 53 55 54 52 63 84 97 92 85 95 114 95 90 109 143 191 108 103 116 146 184 132 133 130 130 133 139 147 151 154 152 157 166 167 161 155 155 157 163 165 162 157 156 161 173 174 169 165 175 191 197 199 195 162 131 141 148
349 354 355 343 327 347 25 36 336 339 1 343 317 316 348 79 70 36 32 21 26 46 0 16 34 28 24 45 39 57 67 63 62 56 58 79 96 101 99 90 70 61 63 44 64 125 113 110 89 10 246 155 147 145 144 147 151 157 157 158 159 161 168 166 160 157 157 168 165 157 158 164 169 166 164 167 170 163 167 183 186 192 194 183 184 186 186
350 12 19 16 5 356 2 28 114 92 29 310 305 7 4 19 69 51 33 20 21 25 4 14 21 32 31 43 47 39 47 50 57 58 70 82 97 108 118 117 115 126 121 118 114 92 111 114 119 132 276 167 138 143 145 143 141 144 146 155 160 159 153 152 154 155 156 150 146 157 161 163 162 160 165 161 163 174 176 174 179 189 192 182 194 198 197
12 14 25 22 18 13 355 347 21 28 357 327 357 21 355 9 45 57 43 37 34 29 29 29 22 20 22 26 49 58 37 24 34 45 39 43 48 62 89 109 109 108 114 124 130 128 115 123 142 161 169 185 173 163 155 151 152 154 156 152 147 149 150 143 135 140 145 149 148 155 162 166 169 167 159 163 172 177 173 170 185 191 194 194 198 200 180
27 16 11 7 8 10 1 344 340 341 352 28 340 341 9 350 347 64 59 60 51 43 54 55 50 54 55 43 32 40 53 43 32 37 31 20 17 23 37 67 95 112 125 139 144 145 141 137 134 136 138 135 130 126 122 132 135 137 136 137 134 131 139 145 140 137 136 145 160 171 169 175 166 171 183 179 172 161 165 180 195 200 201 196 196 196 181
63 126 182 216 117 69 4 344 336 320 326 344 346 14 22 41 53 57 56 57 62 62 65 60 54 62 60 60 52 39 25 39 37 31 12 350 343 344 16 36 46 52 55 81 98 91 94 110 117 116 111 112 113 113 117 118 118 118 125 125 130 135 141 142 144 148 152 167 171 168 165 165 169 183 177 174 168 172 178 185 192 198 188 194 204 192 181
325 276 313 9 23 35 27 360 349 336 312 295 313 338 4 53 64 65 61 59 58 53 35 69 71 66 70 64 57 52 50 46 21 14 4 15 348 332 16 69 52 48 39 20 41 81 107 118 118 118 118 121 124 131 133 132 130 129 130 133 138 141 143 147 155 161 165 165 155 159 166 174 181 177 167 169 176 174 175 181 181 183 184 201 202 172 174
351 350 344 348 350 358 347 334 307 273 263 280 305 310 68 79 75 69 66 66 67 63 58 52 60 66 65 68 70 70 69 55 33 14 1 341 331 1 57 90 76 71 64 34 0 89 128 126 132 130 127 130 133 140 145 142 135 135 135 135 137 139 146 153 152 145 152 156 166 173 180 179 169 167 166 166 165 174 177 182 184 188 192 201 189 173 184
349 350 341 326 319 335 326 324 311 341 327 313 287 327 74 74 99 108 90 71 64 64 72 84 71 67 69 80 102 100 99 105 98 76 10 343 5 54 32 62 84 95 89 79 313 314 148 133 141 134 125 127 135 140 142 135 128 130 133 135 140 147 151 158 160 159 160 160 158 155 145 141 154 164 161 165 171 179 182 189 187 189 195 202 187 183 194
349 350 352 350 334 324 323 297 309 9 330 243 221 261 132 112 90 86 85 81 73 75 74 77 101 118 97 65 51 49 45 53 78 79 76 63 49 54 40 42 21 16 94 188 306 66 59 94 101 84 95 127 136 149 142 128 124 132 133 140 146 149 152 153 147 152 154 159 154 154 160 171 169 167 172 180 183 184 184 189 190 193 197 196 190 187 192
353 351 352 351 341 333 334 354 354 357 19 322 288 59 78 97 86 77 74 71 64 78 78 78 68 57 46 49 35 22 34 65 80 94 91 79 65 66 53 36 28 6 303 311 67 116 142 132 128 127 128 144 147 132 128 135 135 131 132 137 143 142 145 153 159 158 155 148 150 162 170 173 174 173 179 187 188 183 183 191 190 189 197 200 197 193 193
350 351 347 346 343 336 337 1 354 326 329 266 268 358 335 90 88 86 74 60 39 70 81 70 66 62 49 42 24 7 351 45 108 105 102 94 86 79 56 29 12 1 356 24 45 56 84 119 111 114 150 161 153 141 145 154 144 137 140 143 143 148 153 147 140 146 151 149 157 157 169 175 183 184 184 184 186 186 186 192 197 196 196 199 202 190 181
348 348 347 347 341 339 343 338 339 350 319 287 48 61 88 107 101 78 65 69 47 59 67 74 79 67 61 59 68 90 86 73 78 83 88 77 63 56 69 24 326 338 339 351 42 74 70 32 57 74 61 138 143 142 150 166 153 150 148 146 149 149 148 155 163 166 163 168 169 176 184 183 181 184 181 184 190 192 192 197 202 204 205 201 193 186 191
344 346 351 350 347 341 334 333 344 356 344 309 35 63 48 67 84 104 114 105 79 66 70 65 80 87 73 64 65 67 67 85 89 80 72 87 111 106 76 8 318 331 335 356 29 49 56 71 60 111 128 136 135 149 146 156 152 145 143 148 148 150 159 168 173 176 171 170 177 182 172 164 176 191 191 192 195 197 195 196 199 200 205 197 189 190 191
343 353 352 349 342 342 338 342 341 350 4 352 339 46 82 82 82 77 75 75 67 57 53 43 38 37 41 58 74 77 71 73 85 90 81 71 74 84 106 163 326 335 349 36 45 61 45 29 51 92 121 130 132 139 134 131 129 142 142 137 148 157 168 176 175 168 166 171 178 181 174 171 180 190 195 202 208 204 201 200 203 204 202 198 196 192 196
339 353 356 353 348 346 342 346 350 2 11 6 11 14 17 21 36 72 83 69 49 39 35 28 27 33 48 62 72 80 88 89 89 95 97 76 55 48 63 66 6 31 48 59 55 65 43 33 20 141 126 120 130 134 133 143 154 160 151 152 160 166 169 170 172 170 175 178 182 185 186 181 184 189 196 203 208 210 206 210 214 209 205 207 205 204 199
342 354 356 356 353 356 358 355 355 347 331 332 22 27 19 12 11 9 16 43 50 44 41 39 35 30 22 26 49 75 83 81 97 100 92 81 68 31 359 27 34 41 43 60 63 57 43 33 44 43 93 129 124 118 124 138 145 145 152 157 168 169 169 175 184 182 178 180 185 185 179 183 187 190 195 202 202 203 202 206 213 209 205 211 207 205 203
342 352 356 4 9 4 352 351 344 346 358 15 26 23 16 5 5 30 46 59 60 52 45 42 39 30 26 28 21 20 25 35 36 32 43 72 83 31 354 19 17 20 31 45 48 44 38 37 47 50 48 44 79 113 117 117 115 129 138 144 150 156 169 182 185 188 179 177 180 182 186 184 180 192 197 203 203 203 207 208 213 212 207 204 201 201 200
347 358 1 6 8 2 0 3 8 12 16 21 19 10 2 2 355 15 42 47 58 57 49 41 36 29 31 34 29 20 11 15 40 33 33 29 46 43 32 26 29 25 29 37 36 29 14 9 22 35 41 55 73 92 106 123 129 135 146 143 137 147 157 162 167 163 173 181 184 185 182 178 179 178 182 190 190 196 196 193 201 208 202 198 204 198 192
355 4 4 4 7 7 16 24 29 21 12 10 357 358 1 0 356 2 26 41 46 51 49 40 32 30 29 29 28 29 19 14 57 26 13 16 24 30 26 14 9 23 35 39 38 26 20 21 17 9 3 7 36 52 88 154 156 163 179 143 132 154 176 177 169 165 171 164 160 164 176 182 176 168 172 179 192 193 189 187 191 186 185 185 193 191 188
357 1 2 4 15 19 22 28 30 23 8 355 6 5 360 3 352 10 22 25 35 43 43 35 30 27 25 24 26 28 27 23 46 48 7 21 27 33 32 33 30 31 40 42 33 25 17 23 28 22 16 11 357 341 309 224 194 179 187 181 157 172 178 182 189 177 169 175 179 181 185 184 176 170 187 205 216 213 202 208 209 196 195 191 188 190 198
352 356 8 16 19 23 23 26 28 17 2 7 9 6 3 10 19 17 15 20 26 36 45 40 33 25 19 19 24 26 24 26 25 27 33 35 32 31 35 41 37 37 39 42 34 26 16 21 26 22 17 15 13 19 21 28 35 38 34 35 43 43 32 147 177 178 181 177 181 189 190 199 198 195 192 200 211 213 211 220 223 230 226 205 200 204 206
2 6 7 3 11 19 24 26 18 13 20 14 1 10 14 23 27 18 18 19 24 33 38 40 38 28 21 20 23 27 24 20 22 24 30 29 30 33 31 37 39 36 35 37 36 29 25 27 25 18 21 25 27 28 25 35 48 45 43 38 34 36 29 20 20 26 23 5 337 218 216 224 191 183 200 223 235 233 224 215 219 222 217 218 218 216 212
1 4 3 4 9 12 15 19 18 21 20 17 18 22 23 21 25 23 24 25 32 35 27 28 33 23 20 20 22 25 24 24 21 22 27 29 27 29 30 32 36 33 34 33 30 29 28 25 26 28 28 31 29 29 29 30 40 43 37 35 33 35 34 28 25 29 31 32 32 30 33 30 12 4 356 331 262 234 226 222 221 211 204 212 218 212 209